Wind_Speed
17 17 15 15 15 15 16 16 16 16 16 15 15 15 16 16 17 17 17 17 17 17 17 16 16 15 15 14 13 12 11 11 10 9 8 7 6 5 3 3 3 3 3
14 14 13 12 11 11 12 13 13 13 13 13 13 13 14 14 15 16 16 16 15 15 15 15 15 15 14 13 12 12 11 11 10 9 9 8 8 6 5 3 2 2 2
11 10 9 8 8 8 9 10 11 11 11 11 11 11 11 12 13 14 14 14 14 14 14 14 14 14 13 13 12 11 11 11 10 10 9 8 8 7 6 4 2 1 1
8 7 6 6 6 7 7 8 9 9 9 9 9 9 10 10 11 12 12 13 13 13 13 12 12 12 12 12 11 11 11 11 11 10 9 8 8 8 7 5 4 2 1
6 4 4 5 5 6 7 7 7 8 8 8 8 8 9 9 10 10 11 11 12 12 12 12 12 11 10 10 10 10 10 10 10 10 10 9 8 8 7 6 5 4 2
3 2 3 4 5 5 6 6 7 7 7 8 8 9 8 9 9 9 9 10 11 11 11 11 11 11 10 9 9 8 8 9 10 10 10 9 8 8 7 6 5 5 4
2 4 4 4 5 5 5 5 6 7 7 8 8 8 8 8 8 8 9 9 9 10 10 10 11 11 10 10 9 8 8 8 8 10 10 9 8 8 8 7 7 6 6
4 5 6 5 5 5 5 5 5 6 7 8 8 8 8 8 7 7 7 7 8 9 10 10 10 11 10 10 9 9 8 8 8 9 10 10 9 9 8 9 9 8 8
7 7 7 7 7 7 6 6 6 6 7 8 9 8 8 7 7 6 6 6 7 8 9 10 11 11 11 11 11 10 9 9 9 9 10 10 10 10 10 10 10 10 10
10 10 9 9 9 9 8 8 7 7 8 9 9 9 8 7 7 6 5 6 6 7 9 10 11 12 12 12 13 13 12 11 11 10 10 11 11 11 11 11 11 11 11
13 12 12 11 11 11 11 11 10 10 11 11 11 10 9 9 8 7 7 6 7 8 9 10 12 13 13 14 14 15 15 14 13 12 12 12 12 12 12 13 13 13 13
14 15 14 13 13 13 13 14 14 14 14 13 13 12 11 11 10 9 9 8 8 9 10 11 12 13 14 15 15 16 16 16 15 14 14 13 13 13 13 14 14 14 14
15 15 15 15 15 15 16 16 17 16 16 15 15 15 14 13 12 11 10 10 10 10 10 11 12 13 15 16 16 17 17 17 17 16 16 16 15 15 15 15 15 15 15
15 16 16 16 17 17 18 18 18 17 17 17 16 16 16 15 14 13 13 13 12 12 12 12 12 13 15 16 16 17 17 17 18 18 18 18 17 17 16 16 15 16 16
18 18 18 18 19 19 20 20 20 20 20 20 19 18 18 17 17 16 16 15 15 15 15 14 14 15 16 17 17 17 18 18 19 19 19 19 19 19 19 18 17 17 17
21 21 21 21 22 22 23 23 23 23 23 22 22 21 21 20 20 19 19 19 18 18 17 16 16 17 18 18 19 19 20 20 20 20 19 20 20 21 21 20 19 19 18
24 24 24 25 25 25 26 26 27 28 27 26 26 25 24 23 22 22 22 21 21 21 20 19 19 20 20 21 21 22 22 23 23 22 21 21 21 21 22 22 22 21 20
27 27 27 28 29 30 30 31 31 32 32 31 30 29 28 26 25 24 24 24 23 23 23 22 21 22 23 23 23 24 24 25 25 24 23 22 22 22 23 23 23 23 23
30 30 30 31 32 32 33 34 33 35 36 35 33 33 32 30 28 26 26 26 25 25 25 25 24 25 25 25 25 26 27 27 27 26 26 25 24 24 24 25 24 24 24
32 32 33 33 34 35 36 36 37 37 38 37 37 36 35 33 31 29 28 28 27 27 27 27 27 27 28 28 28 28 29 29 29 29 28 28 27 27 26 27 26 25 25
34 34 34 34 35 37 38 38 38 40 40 40 41 40 38 36 34 32 32 31 30 29 29 29 30 30 31 31 31 31 31 32 31 31 30 30 29 29 28 28 28 27 27
35 35 35 36 37 38 38 39 41 42 44 44 44 43 41 39 37 35 34 33 32 31 31 31 31 31 32 34 34 34 32 33 34 33 33 32 31 31 30 30 29 28 28
35 34 34 36 38 38 37 39 41 44 45 45 45 45 45 43 41 39 36 35 34 32 31 31 31 31 33 35 37 37 35 33 34 35 36 34 33 32 32 31 30 29 29
38 36 37 38 39 40 40 41 42 43 42 43 44 44 43 42 41 40 37 35 34 31 30 30 31 33 34 36 37 38 38 36 34 32 34 36 35 34 32 31 31 31 31
42 41 40 41 41 42 42 43 43 43 42 42 42 42 41 40 38 37 34 31 30 29 29 30 31 33 34 36 37 37 37 37 36 33 31 34 35 35 34 33 33 32 32
47 47 46 46 46 45 46 45 45 44 42 39 35 33 33 34 33 32 30 28 28 29 29 30 32 34 35 36 36 36 36 35 34 33 30 30 33 35 35 34 34 34 34
Wind_Direction
103 104 101 97 91 86 83 79 76 71 67 62 57 52 48 45 44 44 45 46 47 48 50 51 51 52 51 50 48 46 45 44 44 44 45 45 45 46 57 89 116 136 144
102 103 101 94 87 81 78 75 73 70 66 61 54 48 43 39 37 37 38 39 40 41 43 45 47 48 49 48 45 42 38 37 37 37 39 41 41 42 44 55 86 127 161
101 100 97 89 79 71 69 68 67 64 61 58 52 45 38 33 30 29 30 30 31 32 34 37 41 44 46 46 43 39 34 30 29 30 30 32 34 35 37 37 41 68 176
99 93 85 75 66 58 55 55 55 54 52 49 44 38 33 27 23 21 21 21 22 23 24 26 30 34 38 40 40 36 30 25 24 25 27 25 24 24 26 26 24 19 349
90 80 60 54 47 40 39 41 42 43 40 36 32 27 23 19 16 14 13 13 14 14 16 18 19 22 25 29 32 31 25 19 14 16 21 21 16 12 12 11 8 1 344
60 27 16 23 25 24 25 29 30 28 24 21 20 18 15 13 11 10 8 8 8 8 8 9 10 12 14 16 18 21 19 12 6 4 9 13 10 3 358 353 348 341 330
356 338 347 358 3 5 9 14 16 13 10 8 8 10 11 10 8 8 7 7 7 7 6 3 1 0 1 4 3 2 1 359 355 352 352 356 357 352 347 341 334 326 316
303 313 321 330 335 339 343 349 355 358 358 359 359 1 5 8 8 8 8 8 8 6 3 358 353 352 349 348 348 345 342 342 339 337 336 338 340 339 337 334 327 320 314
283 293 300 305 310 314 316 323 332 340 345 348 350 351 353 357 1 2 4 5 2 359 356 353 348 345 341 337 334 332 329 326 326 324 324 324 324 324 324 322 321 319 315
273 280 284 289 295 298 300 306 312 322 329 333 336 338 338 337 338 339 342 345 346 347 345 344 341 337 334 330 327 323 323 319 317 315 314 314 312 312 312 312 313 314 314
270 273 276 279 284 288 290 296 300 306 313 319 319 320 322 320 318 316 317 322 326 330 334 335 335 335 331 325 323 320 317 313 309 305 304 304 304 303 302 303 303 303 304
272 272 273 276 278 282 286 291 294 297 302 307 308 307 306 306 304 302 301 303 309 314 320 324 326 329 330 327 322 318 314 308 304 300 296 295 294 295 296 296 296 297 298
274 274 274 275 278 280 284 288 291 293 294 297 298 298 296 295 293 292 291 292 295 300 309 316 320 326 329 329 324 319 314 306 300 296 293 288 286 288 290 291 292 294 295
275 275 276 277 280 281 283 286 286 287 288 290 291 291 291 290 288 287 286 286 286 292 302 312 315 323 329 329 327 323 319 312 304 297 293 287 281 279 282 285 287 289 291
277 277 277 279 280 281 281 282 283 283 284 285 285 286 287 287 286 285 284 282 283 288 297 303 309 315 322 325 326 323 320 318 312 301 293 290 283 277 277 279 282 285 287
276 277 277 279 279 278 278 279 280 281 281 280 280 281 282 282 283 283 282 282 283 285 290 294 298 303 311 317 320 320 318 316 314 308 299 294 288 280 277 277 278 280 282
273 274 275 277 277 276 277 279 280 278 277 277 277 278 279 280 280 280 280 280 281 282 284 287 291 296 302 308 312 313 313 313 312 308 302 295 290 284 279 276 275 276 278
269 271 272 274 275 274 275 277 277 277 276 275 276 276 277 277 277 277 277 277 278 279 280 283 288 292 296 300 304 306 307 307 307 305 301 296 291 285 280 277 275 274 274
265 267 270 271 271 272 272 274 276 277 275 274 275 275 276 275 275 275 275 275 276 275 276 281 285 288 291 294 297 300 302 302 301 299 297 294 290 285 280 276 275 275 273
264 266 267 269 269 269 269 270 272 273 271 271 273 274 275 274 273 273 273 273 273 273 276 279 282 284 287 290 293 295 297 297 297 294 292 292 288 285 281 277 275 274 272
263 264 267 267 267 267 267 267 266 265 266 268 269 270 270 271 272 272 271 271 270 271 272 276 279 282 285 287 290 292 293 294 293 292 290 288 286 283 281 278 275 273 270
263 265 267 267 268 270 269 267 264 262 263 264 266 266 266 267 269 269 267 266 266 267 269 272 275 280 283 286 288 289 290 291 291 290 288 286 284 281 278 276 273 270 268
263 265 268 270 270 270 270 269 267 266 264 262 262 262 262 264 265 266 262 261 263 264 267 270 275 280 284 287 289 290 290 288 288 288 287 284 282 278 276 274 270 266 265
268 269 270 270 271 271 271 270 268 266 264 263 261 261 261 262 265 264 263 264 264 264 268 272 277 282 285 287 289 290 291 290 288 285 285 283 280 277 274 272 267 265 264
272 273 274 273 272 271 272 272 270 268 264 262 262 262 260 261 262 263 265 264 264 268 272 276 281 284 287 289 290 291 291 291 290 287 283 281 280 278 273 270 267 264 264
272 274 275 275 275 275 275 273 271 267 263 264 265 262 262 263 263 263 263 265 268 273 275 280 285 287 289 290 290 291 291 291 290 289 285 279 278 277 275 271 268 264 263
Height
5915 5916 5917 5916 5916 5915 5914 5913 5913 5913 5912 5912 5912 5912 5911 5911 5910 5910 5909 5908 5908 5907 5906 5905 5904 5903 5902 5901 5900 5899 5898 5897 5896 5895 5894 5893 5891 5890 5889 5889 5888 5888 5888
5917 5917 5918 5918 5917 5916 5915 5915 5914 5914 5914 5914 5913 5913 5912 5912 5911 5911 5910 5909 5909 5908 5907 5906 5905 5904 5903 5902 5901 5900 5899 5898 5897 5896 5895 5894 5892 5891 5890 5889 5889 5888 5888
5919 5919 5919 5919 5918 5917 5916 5916 5915 5915 5915 5915 5914 5914 5914 5913 5912 5912 5911 5910 5910 5909 5908 5907 5906 5905 5904 5903 5902 5901 5899 5898 5897 5896 5895 5894 5893 5892 5891 5890 5889 5888 5888
5920 5921 5920 5920 5919 5918 5918 5917 5916 5916 5916 5916 5915 5915 5914 5914 5913 5912 5911 5911 5910 5909 5908 5907 5906 5905 5904 5903 5902 5901 5900 5899 5897 5896 5895 5894 5893 5892 5892 5891 5890 5889 5888
5922 5922 5922 5921 5920 5919 5919 5918 5918 5917 5917 5916 5916 5916 5915 5914 5913 5913 5912 5911 5910 5909 5908 5907 5906 5905 5904 5903 5902 5901 5900 5898 5897 5896 5895 5894 5893 5892 5892 5891 5890 5889 5889
5923 5923 5923 5922 5921 5920 5920 5919 5919 5918 5917 5917 5916 5916 5915 5914 5913 5912 5912 5910 5909 5908 5908 5906 5905 5904 5903 5902 5901 5900 5899 5898 5897 5896 5895 5894 5893 5892 5891 5891 5890 5889 5889
5924 5924 5924 5923 5922 5921 5920 5920 5919 5919 5918 5917 5916 5916 5915 5914 5913 5912 5911 5910 5909 5908 5907 5906 5905 5904 5903 5902 5901 5900 5899 5897 5896 5895 5894 5894 5893 5892 5891 5890 5889 5889 5888
5925 5925 5924 5923 5922 5921 5920 5920 5919 5918 5918 5917 5916 5916 5914 5913 5912 5912 5911 5910 5909 5907 5906 5905 5904 5903 5902 5901 5900 5899 5898 5897 5895 5894 5893 5892 5892 5891 5890 5889 5888 5887 5887
5924 5924 5923 5923 5922 5921 5920 5920 5919 5918 5918 5917 5916 5915 5914 5913 5912 5911 5910 5909 5908 5907 5906 5904 5903 5902 5901 5899 5898 5897 5896 5895 5894 5893 5892 5891 5890 5889 5888 5887 5886 5885 5885
5922 5922 5922 5921 5921 5920 5920 5919 5919 5918 5917 5916 5916 5915 5914 5913 5912 5911 5910 5908 5907 5906 5905 5903 5902 5900 5899 5898 5896 5895 5894 5893 5892 5891 5890 5889 5888 5887 5886 5885 5885 5884 5883
5920 5920 5920 5920 5919 5919 5919 5918 5918 5917 5916 5915 5915 5914 5913 5912 5911 5910 5909 5907 5906 5905 5903 5902 5900 5898 5897 5895 5894 5893 5891 5890 5889 5888 5888 5887 5886 5885 5884 5883 5883 5882 5881
5918 5918 5918 5918 5917 5917 5917 5917 5916 5915 5915 5914 5913 5912 5912 5911 5910 5909 5908 5906 5904 5903 5901 5900 5898 5897 5895 5893 5891 5890 5888 5887 5886 5885 5885 5884 5883 5882 5882 5881 5880 5879 5879
5915 5915 5915 5915 5915 5915 5914 5914 5914 5913 5912 5911 5911 5910 5909 5909 5908 5907 5906 5904 5902 5901 5899 5898 5896 5895 5893 5891 5889 5887 5885 5884 5883 5882 5881 5880 5879 5879 5878 5878 5877 5877 5876
5912 5912 5912 5912 5912 5912 5912 5911 5911 5910 5909 5909 5908 5907 5906 5906 5905 5904 5903 5902 5900 5898 5897 5895 5894 5892 5891 5888 5886 5884 5882 5881 5879 5878 5877 5876 5876 5875 5874 5874 5874 5873 5872
5909 5909 5909 5909 5909 5909 5908 5908 5907 5907 5906 5905 5905 5904 5903 5902 5902 5901 5900 5899 5897 5895 5894 5892 5891 5890 5888 5886 5883 5881 5879 5877 5875 5874 5873 5872 5871 5871 5870 5870 5869 5869 5869
5906 5906 5906 5905 5905 5905 5904 5904 5903 5903 5902 5901 5901 5900 5899 5898 5897 5896 5895 5894 5893 5891 5890 5888 5887 5886 5884 5882 5880 5878 5876 5874 5872 5870 5868 5867 5866 5866 5865 5865 5865 5865 5864
5902 5902 5901 5901 5900 5900 5900 5899 5899 5898 5897 5896 5896 5895 5894 5893 5892 5891 5890 5889 5888 5887 5885 5884 5883 5882 5880 5878 5876 5874 5872 5870 5868 5865 5864 5862 5862 5861 5860 5860 5860 5860 5859
5896 5896 5896 5895 5895 5894 5894 5893 5893 5892 5891 5890 5890 5889 5888 5888 5887 5886 5885 5883 5882 5881 5880 5879 5878 5877 5875 5874 5872 5870 5868 5865 5863 5861 5859 5858 5857 5856 5855 5855 5855 5854 5854
5889 5889 5889 5888 5888 5887 5886 5886 5886 5885 5884 5883 5883 5882 5882 5882 5881 5880 5879 5878 5876 5875 5874 5873 5872 5871 5870 5868 5866 5864 5862 5860 5859 5857 5855 5853 5851 5850 5849 5849 5849 5849 5849
5882 5881 5881 5881 5880 5879 5878 5878 5878 5877 5876 5875 5875 5875 5874 5874 5874 5873 5872 5871 5870 5868 5867 5867 5866 5864 5863 5862 5860 5858 5856 5854 5852 5851 5849 5847 5845 5844 5843 5843 5842 5842 5842
5873 5873 5873 5872 5872 5870 5870 5869 5868 5868 5867 5866 5866 5865 5865 5865 5865 5865 5864 5863 5861 5860 5860 5859 5858 5857 5856 5855 5854 5852 5850 5847 5845 5844 5842 5840 5839 5838 5837 5836 5836 5835 5835
5864 5864 5864 5863 5862 5861 5860 5859 5858 5858 5857 5857 5857 5856 5856 5856 5856 5855 5854 5853 5852 5852 5851 5851 5850 5849 5848 5846 5846 5845 5844 5842 5838 5836 5834 5833 5832 5831 5830 5829 5828 5828 5828
5853 5853 5854 5853 5852 5851 5850 5849 5848 5848 5847 5847 5846 5845 5846 5846 5846 5845 5844 5844 5843 5843 5843 5843 5842 5841 5840 5838 5836 5835 5835 5834 5831 5828 5826 5824 5823 5823 5822 5821 5821 5821 5821
5843 5843 5844 5843 5842 5841 5840 5839 5837 5836 5836 5836 5834 5835 5835 5836 5836 5836 5835 5835 5834 5834 5834 5835 5834 5833 5832 5830 5828 5826 5824 5823 5823 5822 5818 5815 5814 5814 5814 5813 5813 5813 5813
5835 5834 5833 5833 5832 5830 5829 5829 5827 5825 5824 5824 5824 5825 5826 5826 5827 5827 5826 5826 5826 5826 5827 5826 5826 5825 5824 5822 5819 5817 5815 5813 5812 5812 5812 5808 5806 5805 5805 5805 5804 5805 5804
5825 5824 5824 5823 5822 5821 5819 5818 5816 5814 5812 5813 5814 5815 5817 5817 5818 5818 5818 5818 5819 5819 5818 5818 5817 5816 5815 5813 5811 5809 5807 5805 5803 5802 5802 5801 5799 5796 5796 5796 5796 5796 5796